AO-07 1 07530U 74089B 20002.20378508 -.00000024 00000-0 13038-3 0 9995 2 07530 101.7758 333.0488 0012168 327.5944 43.2434 12.53641443 65270 UO-11 1 14781U 84021B 20002.78452627 .00000047 00000-0 11852-4 0 9993 2 14781 97.5983 22.9816 0009293 37.5306 322.6555 14.83131984928121 LO-19 1 20442U 90005G 20002.83749199 .00000008 00000-0 19487-4 0 9991 2 20442 98.6727 309.7113 0010723 287.7093 72.2920 14.32941816564754 HUBBLE 1 20580U 90037B 20002.41002244 .00000394 00000-0 13008-4 0 9997 2 20580 28.4707 344.4495 0002980 93.8872 41.2915 15.09319775430796 MET-2/21 1 22782U 93055A 20002.73960377 .00000021 00000-0 61101-5 0 9996 2 22782 82.5487 5.8955 0022017 346.2986 186.9819 13.83822285330256 AO-27 1 22825U 93061C 20001.73504177 -.00000007 00000-0 15348-4 0 9998 2 22825 98.9177 0.0147 0009036 139.9671 220.2178 14.30074706370114 IO-26 1 22826U 93061D 20001.90060333 -.00000014 00000-0 12555-4 0 9994 2 22826 098.9117 000.1512 0009713 129.1765 231.0280 14.30409252370092 FO-29 1 24278U 96046B 20002.79507324 -.00000006 00000-0 27355-4 0 9992 2 24278 98.5645 134.6235 0351332 86.5481 277.5771 13.53095110154593 NOAA-15 1 25338U 98030A 20002.57450936 .00000019 00000-0 26770-4 0 9990 2 25338 98.7328 28.3401 0010916 33.0086 327.1773 14.25945782125459 GO-32 1 25397U 98043D 20001.89738288 -.00000007 00000-0 16324-4 0 9994 2 25397 098.7112 304.8339 0001558 141.5478 218.5812 14.23676956115716 ISS 1 25544U 98067A 20002.75010541 -.00000176 00000-0 49678-5 0 9991 2 25544 51.6450 92.0329 0005242 94.1284 50.5779 15.49528989206213 NO-44 1 26931U 01043C 20001.86748566 -.00000044 00000-0 14945-4 0 9998 2 26931 67.0496 214.8650 0006852 263.4170 96.6151 14.30563250953177 SO-50 1 27607U 02058C 20001.83619390 -.00000034 00000-0 16043-4 0 9995 2 27607 64.5536 166.8450 0067907 217.3933 142.2435 14.75598851916123 CO-55 1 27844U 03031E 20002.76846865 .00000034 00000-0 34995-4 0 9997 2 27844 98.6835 13.0113 0009966 172.1935 187.9400 14.22213839856444 CO-57 1 27848U 03031J 20002.74688834 .00000021 00000-0 29259-4 0 9992 2 27848 98.6908 13.5273 0009638 183.9741 176.1362 14.21804061856283 RS-22 1 27939U 03042A 20002.80696136 .00000047 00000-0 17105-4 0 9991 2 27939 98.0663 140.1054 0013556 155.8848 204.2994 14.66828088869585 NOAA-18 1 28654U 05018A 20002.55729792 .00000064 00000-0 59474-4 0 9992 2 28654 99.0699 57.2265 0013855 344.7280 15.3471 14.12478617753441 CO-58 1 28895U 05043F 20001.86718272 .00000108 00000-0 29524-4 0 9993 2 28895 097.9845 143.1842 0018102 090.0040 270.3237 14.63725749756093 Falconsat-3 1 30776U 07006E 20002.14436900 .00001817 00000-0 50468-4 0 9991 2 30776 35.4346 269.8067 0001466 110.0056 250.0828 15.37002090711076 CO-65 1 32785U 08021C 20002.14028545 .00000160 00000-0 22872-4 0 9991 2 32785 97.5604 357.6570 0012363 334.3174 25.7428 14.88397124633053 AAUSAT2 1 32788U 08021F 20002.79184966 .00000357 00000-0 37666-4 0 9990 2 32788 97.4924 14.7158 0010221 253.3969 106.6130 14.94906086634517 DO-64 1 32789U 08021G 20002.40186219 .00001180 00000-0 81938-4 0 9998 2 32789 97.4412 50.8722 0012746 162.3364 197.8309 15.07361091636743 CO-66 1 32791U 08021J 20002.09291515 .00000265 00000-0 32187-4 0 9997 2 32791 97.5330 3.7316 0012071 304.1867 55.8207 14.90943552633529 RS-30 1 32953U 08025A 20002.71533749 .00000037 00000-0 19437-3 0 9997 2 32953 82.5039 21.6091 0020234 59.7348 300.5730 12.43093431526918 PRISM 1 33493U 09002B 20002.81357742 .00000647 00000-0 61957-4 0 9993 2 33493 98.1314 296.3590 0013884 245.1913 114.7864 14.96856462594788 NOAA-19 1 33591U 09005A 20002.55008699 .00000022 00000-0 37490-4 0 9992 2 33591 99.1921 3.5836 0013907 180.1408 179.9761 14.12389877561834 TISAT-1 1 36799U 10035E 20001.69565402 .00000086 00000-0 14829-4 0 9995 2 36799 98.1757 165.7040 0012840 154.9615 205.2227 14.91237825514127 JUGNU 1 37839U 11058B 20001.88867337 .00000285 00000-0 10248-4 0 9992 2 37839 019.9596 218.9393 0018861 341.0558 132.7813 14.12667965425065 SRMSAT 1 37841U 11058D 20001.92815948 .00000301 00000-0 20230-4 0 9992 2 37841 019.9721 279.5601 0011902 202.7402 220.3701 14.10646984424484 AO-71 1 37854U 11061E 20002.72723094 .00000353 00000-0 26049-4 0 9990 2 37854 101.7137 7.9170 0159455 197.4525 162.1170 15.06898034446810 HRBE 1 37855U 11061F 20002.82995602 .00000632 00000-0 39425-4 0 9990 2 37855 101.7266 5.3041 0172091 209.2856 149.8626 15.05912244446595 ALMASAT-1 1 38078U 12006B 20002.67005270 .00057894 52838-5 19567-3 0 9991 2 38078 69.4224 53.5686 0107540 309.7639 194.5506 15.81181930428575 HORYU-2 1 38340U 12025D 20001.88122405 .00000114 00000-0 24593-4 0 9994 2 38340 098.3056 051.1345 0010936 210.2088 149.8491 14.75793639399832 RS-40 1 38735U 12041C 20002.69959206 -.00000008 00000-0 -12777-3 0 9991 2 38735 82.4772 104.6463 0017469 162.4619 197.7074 12.42579972337149 BEESAT-3 1 39135U 13015F 20002.69704040 .00000823 00000-0 49600-4 0 9991 2 39135 64.8662 119.8431 0044236 273.0132 86.5932 15.17826226370293 BEESAT-2 1 39136U 13015G 20001.95283974 .00000779 00000-0 48580-4 0 9994 2 39136 64.8710 126.6648 0030993 280.6000 79.1635 15.17248832370094 ZACUBE-1 1 39417U 13066B 20001.96998755 .00000166 00000-0 27083-4 0 9998 2 39417 97.5612 9.3666 0060339 106.7442 254.0404 14.81200155330249 TRITON-1 1 39427U 13066M 20002.82010681 .00000100 00000-0 24309-4 0 9994 2 39427 97.7028 333.2428 0112323 251.0555 107.8450 14.67925539327402 GOMX-1 1 39430U 13066Q 20002.85186309 .00000199 00000-0 45221-4 0 9996 2 39430 97.7732 311.6201 0151162 350.0675 9.7552 14.59333240325509 LO-74 1 39440U 13066AA 20002.71856018 .00000158 00000-0 28803-4 0 9995 2 39440 97.6156 354.6030 0080588 160.7237 199.7052 14.75937644329188 AO-73 1 39444U 13066AE 20001.92811885 .00000213 00000-0 32337-4 0 9993 2 39444 097.5574 011.4478 0059479 100.0553 260.7379 14.82036723328559 SPROUT 1 39770U 14029E 20002.81153442 .00000621 00000-0 74416-4 0 9999 2 39770 97.8912 109.9353 0009369 149.2905 210.8871 14.87561353304288 DUCHIFAT-1 1 40021U 14033M 20002.76153140 .00000333 00000-0 39744-4 0 9999 2 40021 97.9339 293.0865 0014075 114.1467 246.1224 14.90776372301059 NANOSATCBR1 1 40024U 14033Q 20002.35676942 .00000234 00000-0 30221-4 0 9998 2 40024 97.9212 289.5708 0013335 119.0439 241.2116 14.89966269300878 EO-79 1 40025U 14033R 20002.74119311 .00000209 00000-0 28202-4 0 9992 2 40025 97.9112 287.1246 0013499 124.0842 236.1658 14.89046742300794 DTUSAT-2 1 40030U 14033W 20002.05259165 .00000202 00000-0 27667-4 0 9991 2 40030 97.9012 284.2455 0013005 122.0807 238.1674 14.88631438300613 EO-80 1 40032U 14033Y 20001.79666849 .00000200 00000-0 27468-4 0 9991 2 40032 97.9018 283.9916 0012931 123.6375 236.6077 14.88576825300565 ANTELSAT 1 40034U 14033AA 20002.16097858 .00000125 00000-0 25933-4 0 9994 2 40034 97.7331 225.6513 0058616 177.8113 182.3364 14.74184856297767 VELOX-1 1 40057U 14034E 20002.80440122 .00000203 00000-0 35922-4 0 9993 2 40057 98.2575 135.4656 0010171 324.3541 35.6992 14.77775628297024 DAURIA DX 1 1 40071U 14037C 20002.81138922 .00000046 00000-0 13459-4 0 9991 2 40071 98.4451 172.1063 0007655 317.8230 42.2390 14.81321538296588 UKUBE-1 1 40074U 14037F 20002.84881494 .00000183 00000-0 29116-4 0 9995 2 40074 98.4498 181.2984 0003451 310.6804 49.4120 14.84165921297040 HODOYOSHI-1 1 40299U 14070B 20002.74832322 .00000373 00000-0 18404-4 0 9995 2 40299 97.3369 83.2546 0014152 65.7849 51.8967 15.23696509286427 CHUBUSAT-1 1 40300U 14070C 20002.80131968 .00000450 00000-0 22390-4 0 9998 2 40300 97.3081 76.7810 0021359 79.7977 59.8845 15.22308267286159 QSAT-EOS 1 40301U 14070D 20002.79054022 .00001108 00000-0 44880-4 0 9991 2 40301 97.3113 80.9456 0027056 60.1802 87.6613 15.26453989286507 FIREBIRD FU3 1 40377U 15003B 20002.75385161 .00001149 00000-0 48374-4 0 9995 2 40377 99.1155 28.7314 0125953 150.0603 210.7908 15.19452698271993 FIREBIRD FU4 1 40378U 15003C 20002.80558890 .00001138 00000-0 47910-4 0 9996 2 40378 99.1158 28.8820 0126161 149.7687 211.0900 15.19465912272001 GRIFEX 1 40379U 15003D 20002.84395304 .00000784 00000-0 37290-4 0 9996 2 40379 99.1204 21.7944 0134238 171.4474 188.9087 15.15969832271602 NO-84 1 40654U 15025D 20002.53905789 .00005920 00000-0 78954-4 0 8152 2 40654 54.9874 348.1206 0130386 115.1976 246.2711 15.50463937143108 DEORBITSAIL 1 40719U 15032E 20002.16216340 .00000309 00000-0 51026-4 0 9999 2 40719 97.8882 254.7321 0017227 32.1024 328.1232 14.76879435241406 NUDT-PHONESAT 1 40900U 15049B 20002.86070810 .00001559 00000-0 68333-4 0 9993 2 40900 97.4342 15.3018 0011689 203.1129 280.4802 15.23457841237821 XW-2A 1 40903U 15049E 20002.75859934 .00001186 00000-0 29300-4 0 9993 2 40903 97.3127 51.4149 0014118 141.6421 355.7543 15.42477414240776 XW-2C 1 40906U 15049H 20002.78589325 .00000388 00000-0 23716-4 0 9991 2 40906 97.4724 6.6613 0013391 228.7368 255.8505 15.15879507237009 XW-2D 1 40907U 15049J 20002.80383481 .00000685 00000-0 38981-4 0 9990 2 40907 97.4713 6.3659 0012760 225.3113 258.8191 15.16089441237022 LILACSAT-2 1 40908U 15049K 20002.82863519 -.00000009 00000-0 31472-5 0 9998 2 40908 97.4852 4.9728 0014421 235.9328 246.6717 15.13923176236789 XW-2E 1 40909U 15049L 20002.80793117 .00000870 00000-0 45920-4 0 9990 2 40909 97.4614 9.5548 0012413 217.0239 267.1832 15.18115040237244 XW-2F 1 40910U 15049M 20002.77970752 .00000556 00000-0 30978-4 0 9998 2 40910 97.4654 8.6546 0013562 216.0093 317.2501 15.17624355237053 XW-2B 1 40911U 15049N 20002.78848744 .00000310 00000-0 19574-4 0 9992 2 40911 97.4725 7.0317 0012695 226.9356 304.8547 15.16015143236914 DCBB 1 40912U 15049P 20002.82760507 .00000784 00000-0 39542-4 0 9990 2 40912 97.4499 12.6503 0014247 194.7720 289.6477 15.19978369237402 TW-1C 1 40926U 15051B 20002.82787618 .00011091 00000-0 13788-3 0 9996 2 40926 97.1094 53.9886 0007093 8.8440 45.2843 15.60112911241005 TW-1A 1 40928U 15051D 20002.77916097 .00001851 00000-0 45635-4 0 9997 2 40928 97.1267 34.5954 0012664 75.3347 37.4736 15.41744549239687 IO-86 1 40931U 15052B 20002.58753715 .00000638 00000-0 -24146-6 0 9996 2 40931 5.9928 85.5229 0013528 76.7647 283.7111 14.76622055230555 LQSat 1 40958U 15057A 20002.77073196 -.00000006 00000-0 67468-5 0 9991 2 40958 97.8767 71.3709 0017334 329.3345 30.6848 14.73102409227962 AO-85 1 40967U 15058D 20002.43654799 -.00000006 00000-0 18558-4 0 9185 2 40967 64.7764 277.9153 0176809 136.2758 225.2510 14.76047856136925 ATHENOXAT-1 1 41168U 15077C 20002.77444685 .00001486 00000-0 42460-4 0 9998 2 41168 14.9867 204.0252 0011553 328.1761 31.7862 15.14012227224049 ChubuSat-2 1 41338U 16012B 20002.10501876 .00000247 00000-0 12413-4 0 9999 2 41338 31.0044 330.1210 0013825 258.4208 101.4876 15.00225933212586 ChubuSat-3 1 41339U 16012C 20002.31787084 .00000234 00000-0 11381-4 0 9999 2 41339 31.0142 326.6105 0013597 269.0849 90.8229 15.00395847212613 Horyu-4 1 41340U 16012D 20002.23443459 .00000368 00000-0 21128-4 0 9995 2 41340 31.0059 316.6073 0013931 288.6191 71.2932 15.01387065212724 OUFTI-1 1 41458U 16025C 20002.18240306 .00000498 00000-0 29163-4 0 9990 2 41458 98.0995 104.0970 0166046 53.1709 308.4617 15.06351687202299 e-st@r-II 1 41459U 16025D 20002.71312698 .00000468 00000-0 27799-4 0 9994 2 41459 98.0994 104.1957 0167662 53.0850 308.5597 15.05954202202341 AAUSAT4 1 41460U 16025E 20002.82812042 .00001004 00000-0 53338-4 0 9991 2 41460 98.0968 106.0957 0156631 43.3587 317.9855 15.08046653202524 LO-87 1 41557U 16033B 20002.82678373 .00000807 00000-0 32571-4 0 9990 2 41557 97.4112 94.1516 0012565 323.1076 36.9298 15.27633767200337 NuSat2 1 41558U 16033C 20002.80949381 .00000927 00000-0 34965-4 0 9991 2 41558 97.4150 95.8393 0011591 322.3763 37.6665 15.29571434200412 Lapan A3 1 41603U 16040E 20002.77341231 .00000002 00000-0 32391-5 0 9992 2 41603 97.3351 61.2953 0015122 68.5654 64.0749 15.19781210195825 Swayam 1 41607U 16040J 20002.69052196 .00000995 00000-0 44180-4 0 9995 2 41607 97.3419 65.8208 0014625 59.0459 301.2214 15.23779327196029 Pratham 1 41783U 16059A 20002.39206912 .00000035 00000-0 15859-4 0 9990 2 41783 98.0424 62.3301 0034746 121.2380 239.2234 14.63029645174454 AlSat 1N 1 41789U 16059G 20002.82665633 .00000074 00000-0 22862-4 0 9998 2 41789 98.0455 65.1903 0029622 108.6229 251.8189 14.64287523174643 ScatSat 1 41790U 16059H 20002.78284054 .00000009 00000-0 13189-4 0 9999 2 41790 98.1849 47.8238 0006884 74.0958 286.0989 14.50926046173058 TY-1 1 41844U 16066D 20002.81096270 .00000600 00000-0 27222-4 0 9992 2 41844 97.4042 12.8678 0013969 205.9060 279.6672 15.24573793174873 Pegasus-1 1 41846U 16066F 20001.84564390 .00000176 00000-0 37045-4 0 9991 2 41846 098.6872 049.9344 0367349 012.3023 348.6839 14.37678397164884 CAS-2T 1 41847U 16066G 20002.14889664 .00000018 00000-0 13282-4 0 9992 2 41847 98.6805 50.7531 0365922 7.4845 353.1600 14.38031004165372 EO-88 1 42017U 17008BX 20002.76003782 .00001072 00000-0 44441-4 0 9998 2 42017 97.3819 72.6143 0006222 175.9591 184.1698 15.26023314160129 nSIGHT1 1 42726U 98067MF 20002.74243239 .00042775 00000-0 19735-3 0 9992 2 42726 51.6324 8.6638 0000685 221.6064 138.4887 15.83097442149056 CAS-4B 1 42759U 17034B 20002.83575378 -.00000066 00000-0 94977-5 0 9996 2 42759 43.0184 222.4269 0010481 54.7945 53.8693 15.09713103140788 CAS-4A 1 42761U 17034D 20002.78640630 .00000034 00000-0 15563-4 0 9994 2 42761 43.0178 222.1039 0011184 55.1230 41.0724 15.09791774140772 UCLSat 1 42765U 17036A 20002.37638081 .00000895 00000-0 40811-4 0 9991 2 42765 97.3262 60.9077 0009801 251.7067 108.3104 15.23141792140557 NIUSat 1 42766U 17036B 20002.10026378 .00000617 00000-0 30483-4 0 9999 2 42766 97.3257 58.5585 0014074 245.1915 114.7858 15.21421902140241 LituanicaSAT 2 1 42768U 17036D 20002.39935243 .00001471 00000-0 64578-4 0 9993 2 42768 97.3307 60.6843 0013494 241.2014 118.7868 15.23439708140400 Aalto 1 1 42775U 17036L 20001.83714928 .00000502 00000-0 25224-4 0 9993 2 42775 097.3241 058.6511 0012404 245.4585 114.5359 15.21595790140189 URSA MAIOR 1 42776U 17036M 20002.43693911 .00000591 00000-0 29059-4 0 9997 2 42776 97.3252 59.4517 0012259 242.9012 117.0974 15.21753639140282 Max Valier Sat 1 42778U 17036P 20002.79558390 .00000619 00000-0 29817-4 0 9992 2 42778 97.3298 60.8373 0010832 244.7592 115.2522 15.22328579140379 Pegasus 1 42784U 17036V 20001.84330512 .00000753 00000-0 35066-4 0 9990 2 42784 097.3267 060.1409 0010354 254.8773 105.1319 15.22859442140265 NUDATSat 1 42787U 17036Y 20002.82265611 .00001341 00000-0 58198-4 0 9994 2 42787 97.3312 62.1352 0010148 257.0038 103.0066 15.24005725140319 SUCHAI 1 1 42788U 17036Z 20002.12132663 .00000903 00000-0 40895-4 0 9996 2 42788 97.3272 60.8558 0009934 252.1737 107.8416 15.23342344140402 SKCUBE 1 42789U 17036AA 20001.88890974 .00000840 00000-0 38389-4 0 9990 2 42789 097.3268 060.5284 0009806 253.3514 106.6647 15.23213207140289 VZLUSAT 1 1 42790U 17036AB 20001.82554524 .00001143 00000-0 50079-4 0 9991 2 42790 097.3289 061.1565 0009375 251.4275 108.5945 15.23988483140318 VENTA 1 1 42791U 17036AC 20001.92768032 .00000785 00000-0 36060-4 0 9999 2 42791 097.3266 060.6151 0009454 253.6040 106.4158 15.23213670140289 Robusta 1B 1 42792U 17036AD 20002.12571912 .00000869 00000-0 39442-4 0 9992 2 42792 97.3269 60.9605 0009381 252.8491 107.1719 15.23392909140341 D-SAT 1 42794U 17036AF 20002.83271025 .00000061 00000-0 10761-4 0 9991 2 42794 97.5155 43.5441 0125877 200.3685 159.2489 14.91195111137861 TechnoSat 1 42829U 17042E 20002.78928761 .00000056 00000-0 10957-4 0 9998 2 42829 97.5413 252.1495 0015535 117.4533 242.8267 14.91040840134456 QIKCOM-1 1 42983U 98067NF 20002.78230884 .00002686 00000-0 38594-4 0 9995 2 42983 51.6402 64.8259 0004099 142.9736 217.1541 15.60192919124252 AO-91 1 43017U 17073E 20002.73842893 .00000257 00000-0 25991-4 0 9995 2 43017 97.7265 281.3779 0256318 233.2837 124.4585 14.78761575114526 EcAMSat 1 43019U 98067NG 20002.64619577 .00005377 00000-0 62387-4 0 9998 2 43019 51.6413 56.4801 0004343 127.5442 232.5948 15.63615289206672 PICSAT 1 43132U 18004X 20002.30131791 .00000921 00000-0 40982-4 0 9994 2 43132 97.4679 74.5379 0008045 282.8862 77.1477 15.24002553109599 AO-92 1 43137U 18004AC 20002.77215122 .00000712 00000-0 32541-4 0 9991 2 43137 97.4666 74.9188 0007626 283.5150 76.5237 15.23800098109657 TianYi 2 1 43155U 18008A 20002.79306774 .00000576 00000-0 37788-4 0 9997 2 43155 97.4681 75.9789 0017807 8.0338 128.3128 15.11399848107748 Zhou Enlai 1 43156U 18008B 20002.77397919 .00000162 00000-0 13518-4 0 9993 2 43156 97.4726 75.8269 0015054 7.7002 140.3346 15.10913828107708 TianYi 6 1 43158U 18008D 20002.80261332 .00000903 00000-0 58599-4 0 9999 2 43158 97.4675 75.1172 0013546 5.8335 112.5492 15.10481185107665 S-Net G 1 43186U 18014G 20002.31843841 -.00000312 00000-0 -22182-4 0 9999 2 43186 97.7028 272.7805 0012489 66.3392 293.9139 14.96733873104698 S-Net H 1 43187U 18014H 20002.78622999 -.00000355 00000-0 -25983-4 0 9999 2 43187 97.7026 273.2243 0012455 64.8742 295.3770 14.96733619104767 S-Net J 1 43188U 18014J 20001.85011811 -.00000261 00000-0 -17742-4 0 9992 2 43188 097.7030 272.3259 0012526 067.9051 292.3500 14.96733822104625 S-Net K 1 43189U 18014K 20002.78643362 -.00000363 00000-0 -26665-4 0 9995 2 43189 97.7025 273.2209 0012451 64.8585 295.3927 14.96732867103319 FMN 1 1 43192U 18015A 20002.83929818 .00001429 00000-0 60116-4 0 9990 2 43192 97.4224 133.4780 0014889 320.6967 191.5337 15.24948530106500 Shaonian Xing 1 43199U 18015H 20002.65576141 .00001086 00000-0 45914-4 0 9992 2 43199 97.4010 131.9857 0016191 332.6631 142.0228 15.25284523106536 1KUNS-PF 1 43466U 98067NP 20002.52624485 .00032135 00000-0 20555-3 0 9997 2 43466 51.6348 44.1845 0001058 24.3699 335.7351 15.76020018 94005 UBAKUSAT 1 43467U 98067NQ 20002.74175942 .00013350 00000-0 12307-3 0 9995 2 43467 51.6360 54.6957 0001893 84.7339 275.3873 15.67975168 93897 Irazu 1 43468U 98067NR 20002.80463385 .00086504 00000-0 33260-3 0 9996 2 43468 51.6344 31.6630 0003401 31.9502 328.1708 15.86615065194182 EnduroSat One 1 43551U 98067NZ 20002.73611845 .00019017 00000-0 16163-3 0 9995 2 43551 51.6357 56.1529 0003627 174.9648 185.1387 15.69644529 84109 EQUISat 1 43552U 98067PA 20001.60753207 .00012481 00000-0 12068-3 0 9998 2 43552 51.6378 65.9331 0004542 167.4546 192.6564 15.66855858 83838 UiTMSat 1 1 43589U 98067PD 20002.57871211 .00015938 00000-0 14708-3 0 9994 2 43589 51.6348 61.0559 0003678 181.7588 178.3396 15.67771716 79726 Maya 1 1 43590U 98067PE 20001.87077731 .00015027 00000-0 13907-3 0 9992 2 43590 51.6349 64.5858 0003838 179.4430 180.6571 15.67756485 79544 Bhutan 1 1 43591U 98067PF 20002.17238826 .00016446 00000-0 15118-3 0 9993 2 43591 51.6359 62.8936 0003930 181.0627 179.0362 15.67839048 79596 SiriusSat 1 1 43595U 98067PG 20002.72989988 .00012804 00000-0 12522-3 0 9990 2 43595 51.6352 62.8291 0002429 130.6416 229.4792 15.66544635 78821 SiriusSat 2 1 43596U 98067PH 20002.39799682 .00013400 00000-0 13157-3 0 9992 2 43596 51.6361 65.1711 0002861 130.8049 229.3195 15.66396580 78762 Tanusha-3 1 43597U 98067PJ 20002.16398795 .00023120 00000-0 19202-3 0 9995 2 43597 51.6337 61.2428 0001777 145.4277 214.6836 15.70066227 78797 SurfSat 1 43614U 18070B 20002.72988834 .00001948 00000-0 51588-4 0 9990 2 43614 93.0372 85.6060 0012882 260.0967 99.8833 15.38402384 72849 CP-7 DAVE 1 43615U 18070C 20002.16231381 .00001843 00000-0 48981-4 0 9994 2 43615 93.0376 85.3679 0013019 262.0859 97.8917 15.38291505 72754 ELFIN-B 1 43616U 18070D 20002.78439421 .00002679 00000-0 68821-4 0 9991 2 43616 93.0333 85.5347 0013601 262.1552 97.8159 15.39288069 72873 ELFIN-A 1 43617U 18070E 20002.18396081 .00002855 00000-0 73079-4 0 9997 2 43617 93.0389 85.6577 0012899 260.9102 99.0693 15.39401840 72787 STARS-Me Mother 1 43640U 98067PQ 20001.92651789 .00007490 00000-0 90658-4 0 9999 2 43640 51.6368 75.5289 0004870 114.6606 245.4895 15.61808930 70518 CubeBel 1 1 43666U 18083E 20002.81975326 .00000841 00000-0 44736-4 0 9991 2 43666 97.5045 30.8117 0013998 215.5505 318.4647 15.17926806 65335 Changshagaoxin 1 43669U 18083H 20002.81243482 .00000558 00000-0 31614-4 0 9991 2 43669 97.4919 29.5065 0010186 205.4599 154.6133 15.17044337 65263 Ten-Koh 1 43677U 18084G 20002.77180081 .00000017 00000-0 76579-5 0 9991 2 43677 97.8679 120.4365 0015753 353.7437 6.3582 14.90232599 64119 PO-101 1 43678U 18084H 20002.84072699 .00000308 00000-0 36358-4 0 9998 2 43678 97.8682 121.4628 0010411 16.1375 344.0156 14.91599293 64188 IRVINE 01 1 43693U 18088D 20001.89280859 .00002039 00000-0 86885-4 0 9995 2 43693 085.0353 187.8438 0017828 181.4092 178.7103 15.22138580063350 QO-100 1 43700U 18090A 20002.83087057 .00000155 00000-0 00000 0 0 9994 2 43700 0.0168 13.2016 0001806 299.0845 114.5706 1.00265404 4286 Reaktor Hello World 1 43743U 18096AA 20002.77083372 .00000789 00000-0 32472-4 0 9992 2 43743 97.4404 77.3690 0018157 2.3224 147.1009 15.27018592 60950 MinXSS-2 1 43758U 18099A 20002.80750189 .00000551 00000-0 54774-4 0 9998 2 43758 97.7262 77.3180 0016137 31.3884 328.8296 14.95543376 59046 AO-95 1 43770U 18099N 20002.77596897 -.00000148 00000-0 -82529-5 0 9996 2 43770 97.7262 76.9059 0015413 38.2357 321.9953 14.94883522 59017 RANGE-B 1 43772U 18099Q 20002.74837062 .00000708 00000-0 69824-4 0 9999 2 43772 97.7322 77.2092 0014621 26.8655 333.3320 14.95033427 59007 RANGE-A 1 43773U 18099R 20002.16333724 .00000115 00000-0 15779-4 0 9994 2 43773 97.7209 76.0652 0014211 28.7663 331.4338 14.94889719 58915 MOVE-II 1 43780U 18099Y 20002.76761424 .00000231 00000-0 26221-4 0 9993 2 43780 97.7259 77.0113 0014310 36.7696 323.4503 14.95241389 59008 SNUSat 2 1 43782U 18099AA 20002.16519734 .00000119 00000-0 16018-4 0 9992 2 43782 97.7260 76.4557 0013401 28.7489 331.4468 14.95158947 58924 SnugLite 1 43784U 18099AC 20002.14400389 .00000574 00000-0 57318-4 0 9990 2 43784 97.7223 76.3090 0015806 35.6882 324.5392 14.95247361 58930 ITASat 1 1 43786U 18099AE 20002.14232313 .00000480 00000-0 48783-4 0 9994 2 43786 97.7276 76.5806 0015878 34.6203 325.6048 14.95236205 58937 EAGLET 1 1 43790U 18099AJ 20002.17674355 -.00000233 00000-0 -15702-4 0 9991 2 43790 97.7267 76.7951 0014398 39.0337 321.1920 14.95613146 58649 ESEO 1 43792U 18099AL 20002.77993662 -.00000395 00000-0 -30399-4 0 9992 2 43792 97.7242 77.2878 0014087 34.2377 325.9749 14.95557451 58797 CSIM 1 43793U 18099AM 20001.86415283 .00000358 00000-0 37177-4 0 9998 2 43793 097.7219 076.2933 0013445 035.3476 324.8633 14.95880035058632 Astrocast 0.1 1 43798U 18099AS 20002.78779286 -.00000189 00000-0 -11746-4 0 9999 2 43798 97.7255 77.4661 0012753 18.2632 341.9045 14.95799378 59034 JO-97 1 43803U 18099AX 20002.77757642 -.00000226 00000-0 -15209-4 0 9997 2 43803 97.7236 77.0690 0015870 32.6831 327.5369 14.95392327 59023 Suomi 100 1 43804U 18099AY 20002.17522249 -.00000171 00000-0 -10200-4 0 9990 2 43804 97.7235 76.4698 0016011 34.7908 325.4356 14.95386743 58948 Al Farabi 2 1 43805U 18099AZ 20002.83039278 .00000338 00000-0 35703-4 0 9997 2 43805 97.7241 77.1588 0016001 33.1129 327.1090 14.95478276 59048 PWSat 2 1 43814U 18099BJ 20001.93518541 .00014687 00000-0 10270-2 0 9994 2 43814 097.7816 080.3393 0003866 073.3994 286.7655 15.05394534058465 CHOMPTT 1 43855U 18104G 20001.87237875 .00000733 00000-0 29625-4 0 9990 2 43855 85.0372 286.0433 0016542 317.2242 42.7657 15.22683268 58026 ISAT 1 43879U 18111D 20002.83737502 .00000491 00000-0 48678-4 0 9993 2 43879 97.7110 272.8614 0014860 82.1307 278.1600 14.96123019 53578 UWE-4 1 43880U 18111E 20002.30912944 .00000219 00000-0 24407-4 0 9994 2 43880 97.7121 272.5258 0013987 84.3058 275.9758 14.96360647 53501 Sparrow 1 43881U 18111F 20002.69878518 .00000755 00000-0 71644-4 0 9995 2 43881 97.7125 272.9563 0014178 82.3802 277.9030 14.96411183 53559 Lume 1 1 43908U 18111AJ 20002.17278361 .00000817 00000-0 35689-4 0 9996 2 43908 97.2788 266.9103 0022059 18.6977 341.5067 15.24695803 56538 FO-98 1 43933U 19003B 20002.81143595 .00000467 00000-0 23381-4 0 9993 2 43933 97.2562 58.7091 0019670 106.8957 4.6390 15.21878982 53184 FO-99 1 43937U 19003F 20002.69665582 .00000787 00000-0 35061-4 0 9991 2 43937 97.2518 59.3889 0026000 93.6246 36.2447 15.23987590 53238 Delphini 1 1 44030U 98067PW 20001.66631768 .00008924 00000-0 11116-3 0 9993 2 44030 51.6365 82.8022 0003933 163.3852 196.7271 15.60765332 52263 MYSat 1 1 44045U 18092F 20002.79019564 .00002299 00000-0 75841-4 0 9993 2 44045 51.6414 130.9930 0012466 82.3370 277.9029 15.35817260 49677 AstroCast 0.2 1 44083U 19018F 20002.76880373 .00000464 00000-0 23631-4 0 9997 2 44083 97.4446 65.9203 0014874 41.0912 319.1441 15.21580354 42037 AISTechSat 3 1 44103U 19018AB 20002.76164262 .00000521 00000-0 25202-4 0 9992 2 44103 97.4320 65.9839 0014987 56.4206 84.6507 15.22902342 42063 AISat 1 1 44104U 19018AC 20002.75812095 .00000564 00000-0 20629-4 0 9991 2 44104 97.4861 71.2178 0060264 84.7926 276.0188 15.30774296 42305 Raavana-1 1 44329U 98067QE 20002.62574734 .00006007 00000-0 95736-4 0 9991 2 44329 51.6402 88.5084 0006911 98.8436 261.3337 15.54752307 31020 Uguisu 1 44330U 98067QF 20002.24553877 .00005909 00000-0 94494-4 0 9996 2 44330 51.6403 90.4677 0006915 96.0775 264.1004 15.54694945 30948 NepaliSat-1 1 44331U 98067QG 20001.52867562 .00006111 00000-0 97208-4 0 9998 2 44331 51.6404 93.9320 0006959 96.3370 263.8413 15.54772195 30848 Prox-1 1 44339U 19036A 20002.57044710 .00000834 00000-0 14894-3 0 9998 2 44339 24.0045 81.7800 0011134 124.4336 235.7230 14.52790033 27833 OBJECT H 1 44346U 19036H 20002.77806979 .00584874 73667-4 53844-2 0 9992 2 44346 28.5244 26.3190 0228006 346.9056 12.5570 15.40075013 28815 OBJECT J 1 44347U 19036J 20002.38643079 .00031712 00000-0 45904-3 0 9994 2 44347 28.5364 30.1588 0343727 339.8913 18.8407 15.08129419 28748 OBJECT K 1 44348U 19036K 20002.76616226 .00009711 00000-0 14694-3 0 9997 2 44348 28.5236 34.0557 0379091 333.5948 24.5744 14.99556536 28738 Armadillo 1 44352U 19036P 20002.74501777 .00014258 00000-0 21876-3 0 9996 2 44352 28.5376 33.1294 0371848 334.7480 23.5340 15.00991297 28687 NO-104 1 44354U 19036R 20002.40240117 .00010391 00000-0 15558-3 0 9993 2 44354 28.5339 35.1519 0376285 331.1006 26.9217 15.00399651 28670 NO-103 1 44355U 19036S 20002.12585379 .00021120 00000-0 31480-3 0 9999 2 44355 28.5339 34.8673 0365502 331.5966 26.5141 15.03056475 28654 Oculus-ASR 1 44356U 19036T 20001.74738656 .00045042 00000-0 58864-3 0 9999 2 44356 28.5307 29.6694 0336874 339.8783 18.8805 15.11711066 28680 CP9 1 44360U 19036X 20001.76224398 .00028702 00000-0 37457-3 0 9998 2 44360 28.5216 32.5299 0359852 335.7253 22.6757 15.07068977 28529 Move-IIb 1 44398U 19038N 20001.86909061 .00000841 00000-0 52543-4 0 9997 2 44398 97.5149 325.5164 0025239 348.4492 11.6156 15.11948741 27253 SONATE 1 44400U 19038Q 20002.13883251 .00000288 00000-0 20590-4 0 9996 2 44400 97.5172 325.7992 0024959 345.7187 14.3335 15.11788119 27297 BeeSat 9 1 44412U 19038AC 20001.85398010 .00000677 00000-0 42998-4 0 9999 2 44412 97.5165 325.5549 0022763 352.9926 7.0983 15.12015182 26943 JAISAT-1 1 44419U 19038F 20002.39083122 .00000686 00000-0 42989-4 0 9991 2 44419 97.5166 326.2214 0021547 350.9260 9.1578 15.12500817 27348 LightSail-2 1 44420U 19036AC 20002.23355858 .00003935 00000-0 86391-3 0 9996 2 44420 24.0087 83.0855 0020481 86.0308 274.2698 14.54020435 25931 Taurus 1 1 44530U 19059C 20002.82923735 -.00000583 00000-0 -15304-3 0 9997 2 44530 98.5800 82.2883 0014029 294.0163 65.9554 14.45275109 16278 MO-106 1 44830U 19084G 20002.29094099 .00023103 00000-0 21986-3 0 9995 2 44830 96.9978 231.2728 0040261 152.0465 208.2660 15.65752071 4209 TRSI-Sat 1 44831U 19084H 19361.60200735 .00025500 00000-0 24476-3 0 9993 2 44831 97.0006 225.6299 0040103 172.1888 188.0006 15.65530910 3317 MO-105 1 44832U 19084J 20002.73579718 .00023874 00000-0 22553-3 0 9998 2 44832 96.9997 231.7299 0040039 149.1819 211.1805 15.65939715 4276 Duchifat 3 1 44854U 19089C 20002.70072288 .00000212 00000-0 23597-4 0 9995 2 44854 36.9687 3.7303 0007418 155.8459 204.2630 14.98940062 3260 OPS-SAT 1 44878U 19092F 20001.64278401 -.00000066 00000-0 00000 0 0 9999 2 44878 97.4614 187.8324 0013784 213.6672 146.3768 15.15176141 2129 FloripaSat 1 1 44885U 19093G 20002.82482571 .00000192 00000-0 30989-4 0 9997 2 44885 97.9762 79.8718 0013803 225.9444 134.0623 14.81946496 2021 /EX
